QPF
0.02 0.03 0.03 0.02 0.02 0.02 0.02 0.02 0.03 0.03 0.02 0.02 0.02 0.02 0.02 0.02 0.02 0.02 0.02 0.02 0.02 0.02 0.01 0.01 0.01 0.01 0.01 0.02 0.03 0.02 0.02 0.02 0.02 0.02 0.02 0.02 0.02 0.02
0.03 0.02 0.02 0.01 0.01 0.01 0.01 0.01 0.02 0.02 0.02 0.02 0.01 0.01 0.02 0.02 0.02 0.02 0.02 0.02 0.02 0.01 0.02 0.01 0.01 0.01 0.00 0.00 0.01 0.01 0.01 0.02 0.03 0.02 0.02 0.02 0.03 0.02
0.03 0.02 0.02 0.02 0.02 0.01 0.01 0.01 0.01 0.02 0.02 0.02 0.02 0.02 0.02 0.03 0.02 0.02 0.02 0.03 0.02 0.02 0.02 0.01 0.01 0.01 0.00 0.00 0.00 0.01 0.01 0.01 0.02 0.02 0.02 0.02 0.02 0.02
0.03 0.02 0.02 0.02 0.03 0.02 0.01 0.01 0.01 0.02 0.02 0.03 0.02 0.02 0.03 0.03 0.02 0.03 0.02 0.02 0.02 0.03 0.02 0.02 0.02 0.02 0.01 0.01 0.01 0.01 0.01 0.01 0.01 0.01 0.01 0.02 0.01 0.01
0.01 0.01 0.02 0.02 0.03 0.02 0.02 0.02 0.01 0.01 0.02 0.03 0.02 0.02 0.02 0.03 0.03 0.03 0.02 0.02 0.01 0.01 0.01 0.02 0.03 0.03 0.02 0.02 0.02 0.02 0.01 0.01 0.00 0.00 0.01 0.01 0.01 0.01
0.01 0.01 0.02 0.02 0.02 0.02 0.02 0.03 0.03 0.02 0.02 0.02 0.02 0.02 0.03 0.03 0.02 0.03 0.03 0.03 0.02 0.01 0.01 0.01 0.02 0.02 0.02 0.02 0.02 0.02 0.02 0.01 0.01 0.01 0.00 0.01 0.01 0.02
0.03 0.02 0.01 0.01 0.01 0.02 0.01 0.02 0.02 0.02 0.02 0.02 0.02 0.02 0.04 0.03 0.02 0.02 0.03 0.03 0.03 0.02 0.02 0.01 0.01 0.01 0.02 0.02 0.02 0.01 0.01 0.01 0.01 0.01 0.01 0.01 0.01 0.01
0.03 0.02 0.01 0.01 0.01 0.01 0.01 0.01 0.01 0.02 0.02 0.02 0.02 0.02 0.03 0.03 0.02 0.02 0.02 0.03 0.03 0.03 0.03 0.02 0.02 0.01 0.02 0.02 0.01 0.01 0.01 0.01 0.02 0.02 0.02 0.02 0.02 0.02
0.03 0.03 0.01 0.01 0.01 0.01 0.01 0.01 0.01 0.01 0.01 0.03 0.03 0.02 0.02 0.02 0.03 0.02 0.02 0.03 0.03 0.03 0.05 0.05 0.03 0.03 0.02 0.02 0.02 0.02 0.01 0.02 0.02 0.02 0.02 0.01 0.02 0.02
0.03 0.03 0.03 0.02 0.02 0.01 0.01 0.01 0.01 0.01 0.01 0.02 0.03 0.02 0.02 0.02 0.03 0.03 0.04 0.05 0.06 0.05 0.05 0.05 0.04 0.04 0.03 0.02 0.02 0.02 0.02 0.02 0.01 0.01 0.01 0.01 0.01 0.02
0.03 0.03 0.03 0.03 0.03 0.03 0.02 0.01 0.01 0.02 0.02 0.02 0.03 0.02 0.02 0.02 0.02 0.04 0.05 0.05 0.05 0.06 0.07 0.07 0.06 0.05 0.04 0.03 0.02 0.01 0.01 0.01 0.02 0.02 0.02 0.02 0.02 0.01
0.02 0.02 0.03 0.03 0.03 0.03 0.02 0.02 0.02 0.02 0.02 0.02 0.02 0.01 0.01 0.01 0.02 0.03 0.04 0.05 0.05 0.06 0.07 0.07 0.05 0.04 0.03 0.02 0.01 0.01 0.01 0.01 0.01 0.02 0.02 0.02 0.01 0.01
0.01 0.01 0.02 0.02 0.02 0.02 0.01 0.01 0.01 0.01 0.01 0.01 0.01 0.02 0.02 0.02 0.02 0.02 0.03 0.03 0.03 0.03 0.03 0.03 0.03 0.03 0.03 0.03 0.02 0.02 0.02 0.02 0.02 0.01 0.01 0.02 0.01 0.01
0.01 0.01 0.01 0.01 0.01 0.01 0.01 0.00 0.01 0.01 0.01 0.01 0.01 0.01 0.02 0.02 0.02 0.02 0.02 0.02 0.02 0.02 0.02 0.03 0.03 0.03 0.03 0.03 0.02 0.02 0.02 0.02 0.03 0.02 0.02 0.02 0.02 0.02
0.02 0.02 0.02 0.01 0.01 0.01 0.01 0.01 0.01 0.01 0.01 0.01 0.01 0.01 0.01 0.01 0.02 0.02 0.01 0.02 0.02 0.02 0.02 0.03 0.03 0.03 0.03 0.02 0.02 0.02 0.02 0.02 0.02 0.03 0.03 0.03 0.02 0.02
0.02 0.02 0.02 0.01 0.01 0.01 0.02 0.02 0.02 0.02 0.02 0.01 0.02 0.02 0.01 0.01 0.01 0.01 0.01 0.01 0.01 0.01 0.01 0.02 0.02 0.03 0.03 0.03 0.03 0.02 0.02 0.02 0.02 0.02 0.03 0.03 0.03 0.02
0.01 0.01 0.01 0.01 0.01 0.01 0.01 0.02 0.02 0.02 0.02 0.02 0.02 0.02 0.01 0.01 0.01 0.01 0.02 0.01 0.01 0.01 0.01 0.02 0.02 0.03 0.04 0.04 0.04 0.02 0.02 0.02 0.02 0.02 0.01 0.02 0.03 0.03
0.02 0.01 0.01 0.02 0.02 0.02 0.02 0.02 0.02 0.02 0.02 0.02 0.02 0.02 0.02 0.02 0.02 0.02 0.01 0.01 0.01 0.01 0.01 0.01 0.02 0.03 0.03 0.03 0.03 0.03 0.02 0.02 0.02 0.02 0.02 0.02 0.02 0.03
0.02 0.02 0.02 0.02 0.03 0.03 0.02 0.02 0.02 0.02 0.02 0.02 0.02 0.01 0.01 0.02 0.03 0.03 0.02 0.02 0.01 0.01 0.01 0.01 0.03 0.03 0.03 0.02 0.02 0.02 0.02 0.02 0.02 0.03 0.02 0.02 0.02 0.02
0.02 0.02 0.02 0.02 0.02 0.02 0.02 0.02 0.02 0.02 0.02 0.02 0.02 0.02 0.02 0.02 0.02 0.02 0.02 0.01 0.01 0.01 0.01 0.01 0.02 0.03 0.03 0.03 0.03 0.01 0.02 0.02 0.01 0.02 0.02 0.02 0.02 0.02
0.02 0.01 0.01 0.02 0.02 0.02 0.02 0.02 0.03 0.03 0.02 0.02 0.02 0.02 0.02 0.02 0.02 0.02 0.01 0.01 0.01 0.01 0.01 0.01 0.01 0.03 0.04 0.05 0.04 0.03 0.02 0.02 0.02 0.02 0.02 0.03 0.03 0.02
0.02 0.02 0.02 0.02 0.02 0.02 0.02 0.02 0.01 0.01 0.02 0.01 0.01 0.01 0.01 0.02 0.02 0.02 0.02 0.02 0.01 0.01 0.01 0.01 0.02 0.02 0.04 0.05 0.04 0.03 0.02 0.02 0.02 0.02 0.02 0.03 0.04 0.04
0.02 0.02 0.01 0.01 0.01 0.01 0.01 0.01 0.01 0.01 0.01 0.01 0.01 0.01 0.01 0.01 0.02 0.02 0.03 0.03 0.02 0.02 0.01 0.01 0.01 0.02 0.03 0.04 0.05 0.05 0.04 0.04 0.04 0.04 0.04 0.04 0.04 0.05
MSLP
1008.94 1009.33 1009.84 1010.44 1011.07 1011.68 1012.22 1012.68 1013.03 1013.29 1013.50 1013.67 1013.84 1014.03 1014.25 1014.51 1014.78 1015.05 1015.29 1015.50 1015.67 1015.80 1015.90 1015.99 1016.07 1016.18 1016.30 1016.44 1016.61 1016.77 1016.93 1017.07 1017.18 1017.26 1017.31 1017.31 1017.28 1017.20
1008.51 1008.85 1009.30 1009.84 1010.42 1011.00 1011.53 1012.00 1012.40 1012.74 1013.03 1013.29 1013.55 1013.83 1014.13 1014.44 1014.76 1015.05 1015.32 1015.54 1015.71 1015.85 1015.96 1016.06 1016.16 1016.28 1016.42 1016.58 1016.75 1016.92 1017.08 1017.20 1017.29 1017.34 1017.34 1017.31 1017.23 1017.12
1008.14 1008.45 1008.86 1009.36 1009.90 1010.45 1010.98 1011.47 1011.91 1012.30 1012.66 1013.00 1013.34 1013.68 1014.04 1014.39 1014.73 1015.04 1015.31 1015.54 1015.72 1015.87 1016.00 1016.12 1016.25 1016.39 1016.56 1016.74 1016.93 1017.10 1017.25 1017.36 1017.42 1017.44 1017.40 1017.32 1017.20 1017.05
1007.88 1008.18 1008.57 1009.04 1009.56 1010.10 1010.62 1011.12 1011.59 1012.02 1012.43 1012.82 1013.21 1013.59 1013.97 1014.34 1014.69 1015.01 1015.28 1015.52 1015.70 1015.86 1016.00 1016.15 1016.30 1016.47 1016.67 1016.87 1017.08 1017.27 1017.42 1017.52 1017.56 1017.55 1017.48 1017.36 1017.20 1017.01
1007.78 1008.08 1008.46 1008.91 1009.41 1009.93 1010.45 1010.96 1011.43 1011.88 1012.32 1012.73 1013.14 1013.54 1013.93 1014.31 1014.66 1014.97 1015.23 1015.46 1015.65 1015.81 1015.96 1016.12 1016.29 1016.49 1016.70 1016.93 1017.15 1017.35 1017.52 1017.62 1017.67 1017.64 1017.55 1017.41 1017.22 1017.00
1007.87 1008.16 1008.54 1008.98 1009.45 1009.96 1010.46 1010.95 1011.41 1011.86 1012.30 1012.72 1013.12 1013.52 1013.91 1014.27 1014.61 1014.91 1015.17 1015.38 1015.57 1015.72 1015.88 1016.04 1016.21 1016.41 1016.64 1016.88 1017.11 1017.33 1017.51 1017.63 1017.69 1017.67 1017.59 1017.44 1017.24 1017.01
1008.14 1008.42 1008.78 1009.19 1009.64 1010.11 1010.58 1011.04 1011.49 1011.91 1012.32 1012.73 1013.12 1013.51 1013.88 1014.23 1014.55 1014.84 1015.08 1015.29 1015.46 1015.61 1015.75 1015.90 1016.06 1016.25 1016.47 1016.70 1016.94 1017.17 1017.37 1017.51 1017.60 1017.61 1017.54 1017.41 1017.22 1016.99
1008.53 1008.80 1009.13 1009.51 1009.92 1010.35 1010.77 1011.19 1011.59 1011.98 1012.36 1012.73 1013.10 1013.47 1013.82 1014.16 1014.47 1014.75 1014.99 1015.19 1015.34 1015.47 1015.59 1015.72 1015.85 1016.02 1016.21 1016.43 1016.66 1016.89 1017.10 1017.27 1017.38 1017.42 1017.39 1017.28 1017.11 1016.89
1008.98 1009.23 1009.53 1009.87 1010.23 1010.60 1010.98 1011.34 1011.69 1012.03 1012.37 1012.71 1013.06 1013.40 1013.74 1014.07 1014.38 1014.65 1014.89 1015.07 1015.22 1015.33 1015.43 1015.52 1015.62 1015.75 1015.90 1016.09 1016.30 1016.52 1016.73 1016.91 1017.04 1017.11 1017.11 1017.03 1016.88 1016.66
1009.43 1009.65 1009.92 1010.21 1010.52 1010.84 1011.16 1011.46 1011.76 1012.05 1012.35 1012.66 1012.98 1013.30 1013.63 1013.96 1014.26 1014.54 1014.77 1014.95 1015.09 1015.19 1015.26 1015.32 1015.38 1015.47 1015.58 1015.73 1015.91 1016.11 1016.31 1016.48 1016.62 1016.70 1016.71 1016.65 1016.51 1016.30
1009.82 1010.03 1010.26 1010.51 1010.77 1011.03 1011.29 1011.54 1011.79 1012.04 1012.30 1012.58 1012.87 1013.18 1013.50 1013.82 1014.13 1014.40 1014.63 1014.81 1014.95 1015.03 1015.09 1015.12 1015.16 1015.21 1015.29 1015.40 1015.54 1015.71 1015.87 1016.03 1016.15 1016.22 1016.23 1016.16 1016.02 1015.81
1010.14 1010.32 1010.52 1010.74 1010.96 1011.17 1011.38 1011.59 1011.80 1012.01 1012.24 1012.49 1012.76 1013.06 1013.36 1013.67 1013.96 1014.23 1014.47 1014.65 1014.78 1014.87 1014.91 1014.94 1014.96 1014.99 1015.04 1015.12 1015.22 1015.34 1015.47 1015.59 1015.68 1015.72 1015.70 1015.61 1015.46 1015.25
1010.35 1010.52 1010.70 1010.89 1011.07 1011.25 1011.43 1011.61 1011.78 1011.97 1012.18 1012.40 1012.65 1012.92 1013.20 1013.49 1013.77 1014.03 1014.26 1014.44 1014.57 1014.66 1014.72 1014.75 1014.77 1014.79 1014.83 1014.89 1014.96 1015.04 1015.13 1015.20 1015.24 1015.23 1015.18 1015.06 1014.89 1014.67
1010.48 1010.63 1010.79 1010.95 1011.11 1011.27 1011.42 1011.58 1011.74 1011.91 1012.09 1012.30 1012.52 1012.77 1013.02 1013.29 1013.54 1013.78 1013.99 1014.17 1014.31 1014.41 1014.49 1014.54 1014.58 1014.61 1014.65 1014.69 1014.75 1014.80 1014.84 1014.86 1014.84 1014.79 1014.69 1014.54 1014.35 1014.13
1010.51 1010.64 1010.77 1010.91 1011.05 1011.19 1011.33 1011.48 1011.63 1011.79 1011.96 1012.15 1012.35 1012.57 1012.80 1013.03 1013.26 1013.47 1013.67 1013.84 1013.99 1014.11 1014.21 1014.29 1014.36 1014.42 1014.47 1014.52 1014.56 1014.59 1014.59 1014.57 1014.51 1014.41 1014.27 1014.09 1013.89 1013.67
1010.42 1010.52 1010.64 1010.75 1010.87 1011.00 1011.13 1011.28 1011.43 1011.59 1011.75 1011.93 1012.11 1012.31 1012.51 1012.71 1012.90 1013.09 1013.28 1013.45 1013.60 1013.74 1013.88 1013.99 1014.10 1014.20 1014.28 1014.34 1014.38 1014.40 1014.38 1014.32 1014.22 1014.08 1013.91 1013.73 1013.53 1013.32
1010.21 1010.28 1010.36 1010.45 1010.55 1010.67 1010.80 1010.94 1011.09 1011.25 1011.42 1011.59 1011.77 1011.95 1012.12 1012.30 1012.48 1012.65 1012.83 1013.00 1013.17 1013.34 1013.51 1013.66 1013.81 1013.95 1014.06 1014.14 1014.19 1014.20 1014.16 1014.08 1013.96 1013.80 1013.62 1013.43 1013.24 1013.06
1009.87 1009.90 1009.95 1010.01 1010.08 1010.19 1010.31 1010.45 1010.60 1010.77 1010.94 1011.12 1011.29 1011.47 1011.64 1011.82 1011.99 1012.16 1012.34 1012.53 1012.72 1012.92 1013.12 1013.31 1013.50 1013.67 1013.81 1013.91 1013.97 1013.97 1013.93 1013.84 1013.71 1013.55 1013.37 1013.19 1013.01 1012.85
1009.41 1009.40 1009.41 1009.44 1009.49 1009.57 1009.68 1009.82 1009.97 1010.14 1010.33 1010.51 1010.70 1010.89 1011.08 1011.26 1011.45 1011.64 1011.84 1012.05 1012.27 1012.50 1012.73 1012.96 1013.17 1013.37 1013.53 1013.64 1013.71 1013.72 1013.68 1013.59 1013.46 1013.30 1013.13 1012.96 1012.79 1012.65
1008.85 1008.81 1008.78 1008.78 1008.81 1008.87 1008.96 1009.09 1009.24 1009.42 1009.61 1009.81 1010.03 1010.24 1010.45 1010.67 1010.89 1011.11 1011.35 1011.59 1011.84 1012.10 1012.35 1012.61 1012.84 1013.05 1013.22 1013.34 1013.42 1013.43 1013.39 1013.31 1013.19 1013.04 1012.87 1012.71 1012.55 1012.41
1008.23 1008.16 1008.11 1008.08 1008.08 1008.12 1008.20 1008.31 1008.46 1008.64 1008.85 1009.07 1009.31 1009.55 1009.80 1010.06 1010.32 1010.59 1010.86 1011.14 1011.42 1011.71 1011.99 1012.25 1012.49 1012.70 1012.88 1013.00 1013.07 1013.09 1013.06 1012.99 1012.88 1012.74 1012.58 1012.42 1012.26 1012.11
1007.58 1007.50 1007.43 1007.39 1007.37 1007.39 1007.45 1007.56 1007.70 1007.88 1008.09 1008.33 1008.59 1008.87 1009.16 1009.45 1009.76 1010.07 1010.38 1010.70 1011.01 1011.31 1011.60 1011.86 1012.10 1012.31 1012.48 1012.60 1012.67 1012.70 1012.68 1012.62 1012.52 1012.40 1012.26 1012.10 1011.93 1011.74
1006.91 1006.84 1006.77 1006.72 1006.70 1006.71 1006.77 1006.86 1006.99 1007.17 1007.39 1007.64 1007.91 1008.21 1008.54 1008.87 1009.21 1009.55 1009.90 1010.23 1010.56 1010.87 1011.16 1011.42 1011.65 1011.84 1012.00 1012.12 1012.20 1012.23 1012.23 1012.19 1012.12 1012.03 1011.90 1011.74 1011.56 1011.35
Thickness
5673 5672 5671 5672 5672 5671 5671 5670 5667 5665 5667 5669 5669 5669 5667 5665 5662 5661 5661 5658 5656 5655 5654 5652 5651 5650 5649 5648 5647 5646 5645 5645 5645 5644 5644 5644 5644 5644
5668 5667 5666 5668 5668 5667 5667 5667 5666 5664 5664 5668 5666 5667 5663 5662 5659 5659 5658 5656 5654 5653 5651 5649 5648 5647 5645 5644 5643 5642 5640 5640 5639 5639 5638 5638 5638 5638
5665 5664 5663 5662 5664 5664 5663 5663 5663 5662 5659 5663 5665 5664 5659 5658 5657 5656 5656 5654 5654 5651 5648 5646 5644 5643 5642 5640 5638 5637 5636 5634 5634 5633 5632 5631 5631 5631
5663 5661 5660 5660 5658 5659 5659 5659 5659 5658 5656 5655 5658 5659 5656 5655 5654 5653 5654 5654 5651 5648 5646 5643 5641 5639 5638 5636 5634 5632 5631 5629 5628 5627 5626 5626 5625 5624
5661 5659 5658 5657 5655 5656 5654 5655 5656 5656 5654 5653 5654 5654 5654 5654 5651 5651 5651 5649 5649 5647 5644 5641 5639 5637 5635 5632 5630 5628 5626 5624 5622 5621 5620 5619 5618 5617
5660 5658 5657 5655 5653 5652 5651 5650 5651 5651 5651 5651 5651 5651 5651 5651 5649 5648 5647 5648 5647 5646 5643 5640 5637 5634 5632 5630 5627 5624 5621 5619 5617 5616 5615 5613 5612 5611
5658 5657 5656 5653 5650 5648 5649 5648 5648 5647 5648 5648 5648 5648 5648 5646 5646 5646 5645 5645 5644 5643 5641 5640 5637 5634 5631 5626 5623 5620 5617 5614 5613 5611 5610 5609 5608 5606
5656 5655 5654 5651 5648 5645 5643 5642 5642 5643 5644 5643 5644 5643 5642 5643 5642 5642 5641 5640 5639 5640 5637 5636 5635 5632 5629 5626 5621 5616 5613 5610 5608 5607 5605 5604 5603 5602
5654 5652 5653 5653 5648 5647 5643 5640 5639 5638 5636 5638 5639 5639 5639 5640 5638 5638 5637 5636 5635 5636 5632 5631 5631 5628 5627 5624 5618 5614 5610 5607 5605 5603 5602 5601 5600 5598
5652 5651 5649 5648 5648 5644 5644 5643 5642 5640 5637 5636 5636 5636 5637 5635 5634 5634 5633 5632 5632 5632 5629 5626 5627 5625 5625 5621 5616 5612 5608 5605 5602 5600 5599 5597 5596 5594
5652 5651 5649 5647 5642 5640 5640 5641 5640 5639 5636 5633 5632 5631 5630 5629 5628 5629 5630 5630 5630 5631 5628 5623 5622 5621 5620 5619 5615 5610 5606 5603 5600 5598 5596 5594 5592 5590
5652 5651 5646 5645 5640 5637 5638 5638 5637 5637 5636 5634 5630 5629 5629 5628 5625 5625 5627 5627 5627 5625 5625 5619 5618 5617 5614 5615 5613 5609 5605 5601 5599 5596 5594 5591 5588 5586
5653 5653 5650 5642 5638 5635 5634 5636 5634 5632 5632 5632 5632 5632 5631 5629 5627 5625 5624 5623 5622 5622 5621 5617 5615 5613 5610 5608 5609 5608 5605 5602 5598 5595 5592 5589 5585 5583
5651 5652 5649 5640 5637 5634 5632 5632 5629 5627 5631 5632 5633 5632 5631 5630 5628 5625 5622 5619 5617 5616 5615 5613 5611 5609 5606 5605 5604 5603 5601 5599 5597 5595 5592 5587 5583 5580
5649 5645 5641 5637 5634 5633 5631 5629 5627 5629 5631 5631 5631 5631 5631 5629 5626 5623 5620 5617 5614 5613 5612 5608 5607 5606 5604 5602 5600 5599 5597 5595 5594 5592 5589 5586 5583 5580
5645 5643 5638 5635 5634 5633 5631 5630 5630 5632 5631 5630 5630 5629 5628 5626 5624 5622 5619 5617 5614 5613 5610 5607 5603 5601 5599 5598 5597 5595 5593 5591 5590 5588 5585 5584 5582 5579
5643 5642 5641 5640 5638 5637 5635 5634 5633 5631 5628 5628 5627 5625 5624 5624 5622 5620 5617 5615 5613 5611 5609 5606 5602 5599 5596 5594 5593 5592 5590 5589 5587 5584 5580 5580 5579 5577
5638 5641 5641 5640 5639 5639 5637 5635 5632 5630 5628 5627 5625 5623 5622 5621 5619 5618 5615 5612 5611 5609 5607 5605 5602 5597 5594 5594 5588 5588 5587 5586 5584 5581 5578 5577 5576 5575
5636 5640 5639 5638 5637 5637 5636 5634 5632 5631 5627 5625 5623 5622 5621 5619 5617 5615 5613 5610 5608 5607 5605 5603 5600 5596 5592 5592 5590 5582 5582 5580 5578 5577 5576 5574 5573 5572
5637 5638 5638 5637 5635 5634 5634 5632 5631 5629 5626 5624 5622 5620 5619 5617 5615 5613 5611 5607 5605 5602 5601 5599 5596 5593 5590 5587 5585 5581 5575 5575 5574 5572 5572 5571 5569 5566
5638 5638 5637 5636 5634 5632 5631 5630 5628 5626 5624 5622 5620 5618 5617 5615 5613 5611 5609 5604 5601 5599 5597 5595 5593 5586 5585 5583 5580 5579 5576 5570 5568 5566 5566 5566 5566 5565
5636 5636 5635 5633 5631 5629 5628 5627 5626 5624 5622 5620 5619 5616 5615 5613 5611 5609 5607 5605 5601 5598 5595 5593 5589 5585 5583 5580 5579 5577 5574 5570 5566 5561 5559 5558 5559 5559
5633 5632 5631 5630 5630 5628 5627 5626 5624 5623 5621 5620 5618 5615 5613 5611 5609 5607 5605 5603 5600 5596 5592 5589 5587 5583 5581 5578 5576 5574 5571 5569 5567 5563 5560 5555 5552 5551